Weather History for KGLH - September, 2014

Change the Weather History Date:

Saturday, September 13, 2014

  Actual Average Record
Temperature  
Mean Temperature 67 °F 76 °F  
Max Temperature 73 °F 88 °F 101 °F (1939)
Min Temperature 60 °F 64 °F 51 °F (1940)
Degree Days  
Heating Degree Days 0 0  
Month to date heating degree days 0 0  
Since 1 July heating degree days 0 0  
Cooling Degree Days 2 11  
Month to date cooling degree days 193 165  
Year to date cooling degree days 1860 1944  
Growing Degree Days 16 (Base 50)    
Moisture  
Dew Point 57 °F    
Average Humidity 73    
Maximum Humidity 84    
Minimum Humidity 61    
Precipitation  
Precipitation 0.00 in 0.12 in 2.00 in (1945)
Month to date precipitation 0.77 1.35  
Year to date precipitation 40.49 35.91  
Sea Level Pressure  
Sea Level Pressure 30.20 in    
Wind  
Wind Speed 13 mph (NNE)    
Max Wind Speed 21 mph    
Max Gust Speed 25 mph    
Visibility 10 miles    
Events      
T = Trace of Precipitation, MM = Missing Value Source: NWS Daily Summary

Daily Weather History Graph

Daily Weather History Graph

Search for Another Location

Airport or City:

Trip Planner

Search our weather history database for the weather conditions in past years. The results will help you decide how hot, cold, wet, or windy it might be!

Date:

Astronomy

Sep. 13, 2014 Rise Set
Actual Time 6:46 AM CDT 7:13 PM CDT
Civil Twilight 6:21 AM CDT 7:37 PM CDT
Nautical Twilight 5:51 AM CDT 8:07 PM CDT
Astronomical Twilight 5:21 AM CDT 8:36 PM CDT
Moon 10:34 PM CDT (9/13) 11:38 AM CDT (9/13)
Length of Visible Light 13h 16m
Length of Day
12h 27m
Waning Gibbous, 74% of the Moon is Illuminated
Sep 13
Waning Gibbous
Sep 15
Last Quarter
Sep 24
New
Oct 1
First Quarter
Oct 8
Full

Hourly Weather History & Observations

Time (CDT) Temp. Dew Point Humidity Pressure Visibility Wind Dir Wind Speed Gust Speed Precip Events Conditions
12:14 AM 64.4 °F 59.0 °F 83% 30.13 in 10.0 mi North 11.5 mph 20.7 mph N/A   Overcast
12:53 AM 64.0 °F 59.0 °F 84% 30.15 in 10.0 mi NNE 15.0 mph 23.0 mph N/A   Overcast
1:53 AM 64.0 °F 57.9 °F 80% 30.15 in 10.0 mi NNE 13.8 mph 19.6 mph N/A   Overcast
2:53 AM 63.0 °F 57.9 °F 84% 30.15 in 10.0 mi North 11.5 mph 21.9 mph N/A   Overcast
3:53 AM 62.1 °F 57.0 °F 84% 30.17 in 10.0 mi NNE 11.5 mph - N/A   Overcast
4:53 AM 62.1 °F 55.9 °F 80% 30.17 in 10.0 mi NNE 15.0 mph 21.9 mph N/A   Overcast
5:02 AM 62.6 °F 55.4 °F 77% 30.15 in 10.0 mi NNE 11.5 mph 20.7 mph N/A   Overcast
5:26 AM 60.8 °F 55.4 °F 82% 30.15 in 10.0 mi North 15.0 mph - N/A   Overcast
5:53 AM 60.1 °F 55.9 °F 86% 30.17 in 10.0 mi North 16.1 mph 20.7 mph N/A   Overcast
6:53 AM 60.1 °F 55.0 °F 83% 30.19 in 10.0 mi North 12.7 mph - N/A   Overcast
7:53 AM 60.1 °F 55.0 °F 83% 30.21 in 8.0 mi North 15.0 mph 21.9 mph N/A   Overcast
8:53 AM 62.1 °F 55.0 °F 78% 30.22 in 8.0 mi North 16.1 mph 25.3 mph N/A   Overcast
9:50 AM 62.6 °F 55.4 °F 77% 30.22 in 9.0 mi NNE 15.0 mph 21.9 mph N/A   Overcast
9:53 AM 63.0 °F 55.0 °F 75% 30.25 in 9.0 mi NNE 16.1 mph 21.9 mph N/A   Overcast
10:53 AM 64.9 °F 55.9 °F 73% 30.25 in 10.0 mi NNE 15.0 mph - N/A   Overcast
11:53 AM 66.9 °F 55.9 °F 68% 30.25 in 10.0 mi North 13.8 mph - N/A   Overcast
12:53 PM 69.1 °F 57.0 °F 65% 30.24 in 9.0 mi North 11.5 mph - N/A   Overcast
1:53 PM 70.0 °F 57.9 °F 65% 30.22 in 10.0 mi North 13.8 mph 20.7 mph N/A   Overcast
2:14 PM 73.4 °F 57.2 °F 57% 30.20 in 10.0 mi North 15.0 mph - N/A   Overcast
2:28 PM 71.6 °F 57.2 °F 60% 30.20 in 10.0 mi North 11.5 mph - N/A   Overcast
2:53 PM 72.0 °F 57.9 °F 61% 30.22 in 10.0 mi NNE 13.8 mph 20.7 mph N/A   Overcast
3:53 PM 69.1 °F 57.0 °F 65% 30.20 in 9.0 mi North 13.8 mph 24.2 mph N/A   Mostly Cloudy
4:38 PM 71.6 °F 57.2 °F 60% 30.17 in 10.0 mi North 11.5 mph 17.3 mph N/A   Mostly Cloudy
4:53 PM 71.1 °F 57.0 °F 61% 30.19 in 10.0 mi NNE 13.8 mph - N/A   Partly Cloudy
5:14 PM 69.8 °F 57.2 °F 64% 30.17 in 10.0 mi North 13.8 mph - N/A   Mostly Cloudy
5:53 PM 68.0 °F 57.0 °F 68% 30.19 in 10.0 mi North 10.4 mph - N/A   Overcast
6:53 PM 66.9 °F 55.9 °F 68% 30.19 in 10.0 mi NNE 10.4 mph - N/A   Overcast
7:53 PM 66.0 °F 55.9 °F 70% 30.21 in 10.0 mi NNE 8.1 mph - N/A   Overcast
8:53 PM 66.0 °F 55.9 °F 70% 30.22 in 10.0 mi NNE 12.7 mph - N/A   Overcast
9:53 PM 66.0 °F 55.9 °F 70% 30.23 in 10.0 mi NE 9.2 mph - N/A   Overcast
10:53 PM 64.9 °F 55.9 °F 73% 30.23 in 10.0 mi NE 10.4 mph - N/A   Overcast
11:53 PM 64.9 °F 57.0 °F 75% 30.23 in 10.0 mi NE 8.1 mph - N/A   Overcast